Piney Island, NC

2:56 AM EST on November 23, 2017 (GMT -0500)
Piney Island

Weather History for KNBT - October, 2011

Change the Weather History Date:

Saturday, October 29, 2011

  Actual Average (KMRH) Record (KMRH)
Temperature  
Mean Temperature 57 °F -  
Max Temperature 66 °F 71 °F 79 °F (1950)
Min Temperature 46 °F 51 °F 27 °F (1976)
Degree Days  
Heating Degree Days 8    
Growing Degree Days 7 (Base 50)    
Moisture  
Dew Point 53 °F    
Average Humidity 80    
Maximum Humidity 94    
Minimum Humidity 61    
Precipitation  
Precipitation 0.00 in - - ()
Sea Level Pressure  
Sea Level Pressure 29.88 in    
Wind  
Wind Speed 13 mph (NNW)    
Max Wind Speed 28 mph    
Max Gust Speed 38 mph    
Visibility 8 miles    
Events      
Averages and records for this station are not official NWS values.
T = Trace of Precipitation, MM = Missing Value Source: NWS Daily Summary

Daily Weather History Graph

Daily Weather History Graph

Search for Another Location

Airport or City:

Trip Planner

Search our weather history database for the weather conditions in past years. The results will help you decide how hot, cold, wet, or windy it might be!

Date:

Astronomy

Oct. 29, 2011 Rise Set
Actual Time 7:23 AM EDT 6:14 PM EDT
Civil Twilight 6:57 AM EDT 6:40 PM EDT
Nautical Twilight 6:27 AM EDT 7:10 PM EDT
Astronomical Twilight 5:58 AM EDT 7:40 PM EDT
Moon 10:36 AM EDT (10/29) 8:43 PM EDT (10/29)
Length of Visible Light 11h 43m
Length of Day
10h 51m
Waxing Crescent, 11% of the Moon is Illuminated
Oct 29
Waxing Crescent
Nov 2
First Quarter
Nov 10
Full
Nov 18
Last Quarter
Nov 25
New

Hourly Weather History & Observations

Time (EDT) Temp. Dew Point Humidity Pressure Visibility Wind Dir Wind Speed Gust Speed Precip Events Conditions
12:44 AM 62.6 °F 57.2 °F 82% 29.93 in 8.0 mi NNE 12.7 mph 20.7 mph 0.00 in   Overcast
12:56 AM 63.0 °F 57.9 °F 84% 29.94 in 8.0 mi NNE 12.7 mph - 0.00 in   Overcast
1:07 AM 62.6 °F 57.2 °F 82% 29.92 in 8.0 mi NNE 13.8 mph 21.9 mph N/A   Overcast
1:24 AM 62.6 °F 57.2 °F 82% 29.91 in 8.0 mi NE 12.7 mph - N/A   Overcast
1:56 AM 63.0 °F 57.9 °F 84% 29.93 in 8.0 mi North 10.4 mph - N/A   Mostly Cloudy
2:56 AM 63.0 °F 57.9 °F 84% 29.89 in 8.0 mi NNE 8.1 mph - N/A   Overcast
3:56 AM 64.9 °F 61.0 °F 87% 29.85 in 7.0 mi NE 10.4 mph - N/A   Overcast
4:29 AM 64.4 °F 62.6 °F 94% 29.83 in 7.0 mi NE 10.4 mph - N/A   Overcast
4:56 AM 64.9 °F 62.1 °F 90% 29.84 in 6.0 mi NE 8.1 mph - N/A   Mostly Cloudy
5:03 AM 66.2 °F 62.6 °F 88% 29.82 in 6.0 mi NE 6.9 mph - N/A   Mostly Cloudy
5:20 AM 66.2 °F 62.6 °F 88% 29.81 in 6.0 mi NE 6.9 mph - N/A   Overcast
5:26 AM 66.2 °F 62.6 °F 88% 29.81 in 6.0 mi NE 6.9 mph - N/A   Overcast
5:35 AM 66.2 °F 62.6 °F 88% 29.81 in 6.0 mi ENE 6.9 mph - N/A   Overcast
5:52 AM 66.2 °F 62.6 °F 88% 29.80 in 7.0 mi NE 5.8 mph - N/A   Mostly Cloudy
6:43 AM 64.4 °F 62.6 °F 94% 29.80 in 6.0 mi WSW 3.5 mph - N/A   Mostly Cloudy
6:56 AM 63.0 °F 61.0 °F 93% 29.82 in 5.0 mi WSW 5.8 mph - N/A   Mostly Cloudy
7:03 AM 64.4 °F 62.6 °F 94% 29.81 in 5.0 mi West 13.8 mph 19.6 mph N/A   Overcast
7:56 AM 62.1 °F 59.0 °F 90% 29.82 in 6.0 mi WSW 5.8 mph - N/A   Overcast
8:56 AM 62.1 °F 59.0 °F 90% 29.83 in 4.0 mi West 13.8 mph - N/A   Overcast
9:56 AM 60.1 °F 57.0 °F 90% 29.83 in 5.0 mi West 9.2 mph - N/A   Overcast
10:56 AM 59.0 °F 55.0 °F 87% 29.83 in 6.0 mi WNW 11.5 mph 20.7 mph N/A   Overcast
11:56 AM 57.0 °F 52.0 °F 83% 29.82 in 6.0 mi WNW 16.1 mph 21.9 mph N/A   Haze
12:56 PM 55.9 °F 50.0 °F 80% 29.81 in 8.0 mi West 16.1 mph 19.6 mph N/A   Overcast
1:23 PM 57.2 °F 50.0 °F 77% 29.79 in 9.0 mi WNW 18.4 mph 24.2 mph N/A   Scattered Clouds
1:47 PM 57.2 °F 48.2 °F 72% 29.80 in 9.0 mi WNW 16.1 mph 25.3 mph N/A   Mostly Cloudy
1:56 PM 57.9 °F 48.9 °F 72% 29.82 in 9.0 mi West 18.4 mph 25.3 mph N/A   Mostly Cloudy
2:56 PM 55.0 °F 46.0 °F 72% 29.83 in 9.0 mi WNW 20.7 mph 28.8 mph N/A   Overcast
3:20 PM 55.4 °F 46.4 °F 72% 29.83 in 9.0 mi WNW 21.9 mph 31.1 mph N/A   Overcast
3:56 PM 53.1 °F 44.1 °F 71% 29.86 in 9.0 mi NW 21.9 mph 34.5 mph N/A   Overcast
4:56 PM 51.1 °F 42.1 °F 71% 29.90 in 9.0 mi NW 20.7 mph 31.1 mph N/A   Overcast
5:56 PM 50.0 °F 39.9 °F 68% 29.94 in 9.0 mi NNW 20.7 mph 34.5 mph N/A   Overcast
6:37 PM 51.8 °F 39.2 °F 62% 29.94 in 10.0 mi NW 19.6 mph 31.1 mph N/A   Partly Cloudy
6:56 PM 51.1 °F 39.9 °F 66% 29.96 in 10.0 mi NW 23.0 mph 34.5 mph N/A   Partly Cloudy
7:56 PM 51.1 °F 39.0 °F 63% 29.98 in 10.0 mi NW 23.0 mph 32.2 mph N/A   Partly Cloudy
8:56 PM 50.0 °F 37.0 °F 61% 30.01 in 10.0 mi NNW 21.9 mph 38.0 mph N/A   Clear
9:56 PM 48.9 °F 37.9 °F 66% 30.04 in 10.0 mi NNW 27.6 mph 38.0 mph N/A   Partly Cloudy
10:56 PM 48.0 °F 37.0 °F 66% 30.07 in 10.0 mi NNW 24.2 mph 32.2 mph N/A   Clear
11:56 PM 46.9 °F 37.9 °F 71% 30.07 in 10.0 mi North 20.7 mph 26.5 mph N/A   Clear